This is the latest recevied weather packets stored in our database for station/object K3BAY-1. If no packets are shown the sender has not sent any weather packets the latest 10 day(s).
| Time | Temp. | Humidity | Pressure | Rain* | Wind** | Luminosity | Snow |
|---|---|---|---|---|---|---|---|
| 1777566996 | 20° C | 48% | 1009.1 hPa | 0 mm | - | 148 W/m² | - |
| 1777566694 | 20° C | 46% | 1009.1 hPa | 0 mm | - | 95 W/m² | - |
| 1777566391 | 20° C | 46% | 1009.1 hPa | 0 mm | - | 95 W/m² | - |
| 1777566088 | 20° C | 49% | 1009.1 hPa | 0 mm | - | 796 W/m² | - |
| 1777565784 | 20.56° C | 50% | 1009.1 hPa | 0 mm | - | 230 W/m² | - |
| 1777565480 | 20.56° C | 50% | 1009.1 hPa | 0 mm | - | 230 W/m² | - |
| 1777565176 | 19.44° C | 54% | 1008.7 hPa | 0 mm | - | 66 W/m² | - |
| 1777564873 | 19.44° C | 54% | 1008.7 hPa | 0 mm | - | 66 W/m² | - |
| 1777564567 | 18.33° C | 56% | 1009.1 hPa | 0 mm | - | 104 W/m² | - |
| 1777564263 | 18.33° C | 55% | 1008.7 hPa | 0 mm | - | 117 W/m² | - |
| 1777563959 | 18.33° C | 61% | 1008.7 hPa | 0 mm | - | 98 W/m² | - |
| 1777563656 | 18.33° C | 61% | 1008.7 hPa | 0 mm | - | 98 W/m² | - |
| 1777563350 | 18.89° C | 59% | 1008.7 hPa | 0 mm | - | 120 W/m² | - |
| 1777563047 | 19.44° C | 59% | 1008.7 hPa | 0 mm | - | 77 W/m² | - |
| 1777562742 | 19.44° C | 59% | 1008.7 hPa | 0 mm | - | 77 W/m² | - |
| 1777562441 | 18.89° C | 57% | 1008.4 hPa | 0 mm | - | 85 W/m² | - |
| 1777562138 | 18.33° C | 57% | 1008.4 hPa | 0 mm | - | 99 W/m² | - |
| 1777561836 | 18.89° C | 61% | 1008.1 hPa | 0 mm | - | 112 W/m² | - |
| 1777561532 | 18.89° C | 61% | 1008.1 hPa | 0 mm | - | 112 W/m² | - |
| 1777561228 | 17.78° C | 63% | 1008.1 hPa | 0 mm | - | 54 W/m² | - |
| 1777560927 | 17.22° C | 67% | 1008.1 hPa | 0 mm | - | 75 W/m² | - |
| 1777560624 | 17.22° C | 67% | 1008.1 hPa | 0 mm | - | 75 W/m² | - |
| 1777560322 | 17.22° C | 68% | 1007.7 hPa | 0 mm | - | 72 W/m² | - |
| 1777560020 | 17.22° C | 68% | 1007.7 hPa | 0 mm | - | 72 W/m² | - |
| 1777559715 | 17.22° C | 68% | 1007.7 hPa | 0 mm | - | 67 W/m² | - |
* Rain latest hour (hover to see other rain measurements)
** Current wind speed in m/s (hover to see current wind gust speed)